Regional Weather Roundup
Issued by NWS

Home | Current Version | Previous Version | Graphics & Text | Print | Product List | Glossary On
Versions: 1 2 3 4 5 6 7 8 9 10 11 12 13 14 15 16 17 18 19 20 21 22 23 24 25 26 27 28 29 30 31 32 33 34 35 36 37 38 39 40 41 42 43 44 45 46 47 48 49 50
185
ASUS43 KTOP 192359
RWRKS

WEATHER ROUNDUP FOR KANSAS
NATIONAL WEATHER SERVICE GOODLAND KS
600 PM CST SUN NOV 19 2017

NOTE:  "FAIR" INDICATES FEW OR NO CLOUDS BELOW 12,000 FEET WITH NO
SIGNIFICANT WEATHER AND/OR OBSTRUCTIONS TO VISIBILITY.

KSZ001>006-013>018-027>032-041>047-200100-
NORTHWEST KANSAS

CITY           SKY/WX    TMP DP  RH WIND       PRES   REMARKS
GOODLAND       CLOUDY    45  14  28 S9        29.97F
6HR MIN TEMP:  45; 6HR MAX TEMP:  61;

HAYS           CLOUDY    49  23  36 SW7       30.01F
HILL CITY      CLOUDY    49  25  39 SW8       29.99F
6HR MIN TEMP:  49; 6HR MAX TEMP:  60;

RUSSELL        PTCLDY    49  23  36 S12       29.99F
6HR MIN TEMP:  47; 6HR MAX TEMP:  61;

$$

KSZ061>065-074>080-084>089-200100-
SOUTHWEST KANSAS

CITY           SKY/WX    TMP DP  RH WIND       PRES   REMARKS
DODGE CITY     CLEAR     48  18  30 S8        30.04S
6HR MIN TEMP:  48; 6HR MAX TEMP:  64;

GARDEN CITY    CLEAR     51  18  27 S7        30.01F
6HR MIN TEMP:  50; 6HR MAX TEMP:  61;

GREAT BEND     CLOUDY    48  23  37 S8        30.03F
LIBERAL        CLEAR     46  18  32 SW12      30.05F
$$

KSZ066>073-081>083-090>101-200100-
SOUTHEAST KANSAS

CITY           SKY/WX    TMP DP  RH WIND       PRES   REMARKS
CHANUTE        CLEAR     45  30  55 S9        30.15F
6HR MIN TEMP:  45; 6HR MAX TEMP:  56;

COFFEYVILLE    CLEAR     47  30  51 SE6       30.17F
6HR MIN TEMP:  47; 6HR MAX TEMP:  57;

HUTCHINSON     CLOUDY    49  23  36 S9        30.06F
6HR MIN TEMP:  49; 6HR MAX TEMP:  61;

MEDICINE LODGE   N/A     53  20  27 S10       30.08F
NEWTON         CLOUDY    47  22  37 S10       30.09F
PARSONS        CLEAR     48  29  47 SE5       30.17F
6HR MIN TEMP:  48; 6HR MAX TEMP:  56;

WICHITA INTL   CLOUDY    48  25  40 S10       30.09F
6HR MIN TEMP:  48; 6HR MAX TEMP:  59;

WICHITA JABRA  CLOUDY    47  23  38 S9        30.10F
6HR MIN TEMP:  47; 6HR MAX TEMP:  58;

WICHITA MCCONL CLOUDY    49  21  32 S8        30.10F
WINFIELD       PTCLDY    46  25  43 S9        30.14S
6HR MIN TEMP:  46; 6HR MAX TEMP:  59;

$$

KSZ007>012-019>026-033>040-048>060-102>105-200100-
NORTHEAST KANSAS

CITY           SKY/WX    TMP DP  RH WIND       PRES   REMARKS
CONCORDIA      CLEAR     49  21  33 S12       30.00F
6HR MIN TEMP:  49; 6HR MAX TEMP:  59;

EMPORIA        CLEAR     43  23  45 S12       30.10F
6HR MIN TEMP:  43; 6HR MAX TEMP:  58;

LAWRENCE       CLEAR     42  29  59 SE8       30.10F
6HR MIN TEMP:  42; 6HR MAX TEMP:  56;

MANHATTAN      CLEAR     48  22  35 SW6       30.06S
6HR MIN TEMP:  48; 6HR MAX TEMP:  60;

OLATHE IND     CLEAR     41  29  62 S6        30.12S
6HR MIN TEMP:  41; 6HR MAX TEMP:  53;

OLATHE EXE     CLEAR     43  29  57 S5        30.12S
6HR MIN TEMP:  43; 6HR MAX TEMP:  51;

SALINA         CLOUDY    47  23  38 S10       30.04F
6HR MIN TEMP:  47; 6HR MAX TEMP:  63;

TOPEKA BILLARD CLEAR     49  24  37 S6        30.08F
6HR MIN TEMP:  49; 6HR MAX TEMP:  58;

TOPEKA FORBES  CLEAR     48  23  37 S7        30.09S
6HR MIN TEMP:  47; 6HR MAX TEMP:  58;

$$




USA.gov is the U.S. government's official web portal to all federal, state and local government web resources and services.